User: anonymous   Login
Location: Deer Path Park
(40.5570°N, 74.8450°W)
Time: 06:49:55
(UTC-05:00)
Language:

Iridium 49 - Orbit

View from above orbital plane
View from above orbital plane
View from above satellite
View from above satellite

Ground track
Ground track

The orbit data is extracted from the following two-line orbital elements,

1 25108U 97082E   16345.54556353 -.00000048  00000-0 -24126-4 0  9990
2 25108  86.3935 334.2799 0002090  81.8168  57.8432 14.34215288993336
Epoch (UTC): 10 December 2016 13:05:36
Eccentricity: 0.0002090
inclination: 86.3935°
perigee height: 776 km
apogee height: 779 km
right ascension of ascending node: 334.2799°
argument of perigee: 81.8168°
revolutions per day: 14.34215288
mean anomaly at epoch: 57.8432°
orbit number at epoch: 99333

The dashed part of the orbit path shows where the satellite is in the earth's shadow,  

DLR